Weather Roundup
Issued by NWS Chicago, IL

Home | Current Version | Previous Version | Graphics & Text | Print | Product List | Glossary On
Versions: 1 2 3 4 5 6 7 8 9 10 11 12 13 14 15 16 17 18 19 20 21 22 23 24 25 26 27 28 29 30 31 32 33 34 35 36 37 38 39 40 41 42 43 44 45 46 47 48 49 50
000
NZUS59 KLOT 230403
HRRLOT

CHICAGO AREA WEATHER ROUNDUP
NATIONAL WEATHER SERVICE CHICAGO/ROMEOVILLE IL
1100 PM CDT TUE MAY 22 2018

NOTE: "FAIR" INDICATES FEW OR NO CLOUDS BELOW 12,000 FEET WITH NO
SIGNIFICANT WEATHER AND/OR OBSTRUCTIONS TO VISIBILITY.

* THESE STATIONS ARE NOT UNDER NWS QUALITY CONTROL. THEY ALSO MAY NOT
  REPORT WEATHER SUCH AS PRECIPITATION OR FOG.

ILZ005-006-012>014-019>023-230500-
NORTHEAST ILLINOIS

CITY           SKY/WX    TMP DP  RH WIND       PRES   REMARKS
OHARE            N/A     56  50  80 CALM      30.09S
MIDWAY           N/A     54  50  86 SE3       30.09S
AURORA           N/A     58  57  97 NE5       30.10R
LANSING*         N/A     51  51  99 CALM      30.11S
JOLIET*          N/A     58  56  94 CALM      30.11R
WAUKEGAN         N/A     49  49 100 CALM      30.10R FOG
DUPAGE AIRPORT   N/A     57  55  93 CALM      30.10R FOG
WHEELING         N/A     55  52  89 CALM      30.11S
KANKAKEE*        N/A     56  55  94 CALM      30.11R
MORRIS*          N/A     59  57  91 SE3       30.09R
NORTHERLY ISL    N/A     50  47  89 SE1         N/A
$$

WIZ051-052-058>065-066-070>072-230500-
SOUTHEAST WISCONSIN

CITY           SKY/WX    TMP DP  RH WIND       PRES   REMARKS
MILWAUKEE        N/A     56  53  90 W3        30.09S
KENOSHA*         N/A     52  49  89 CALM      30.10R
RACINE*          N/A     50  49  96 CALM      30.11S
BURLINGTON       N/A     55  55  97 CALM      30.10S FOG
WAUKESHA         N/A     54  52  94 CALM      30.11S
WEST BEND        N/A     55  55 100 CALM      30.10R
$$

INZ001>003-010>013-019-020-230500-
NORTHWEST INDIANA

CITY           SKY/WX    TMP DP  RH WIND       PRES   REMARKS
GARY*            N/A     50  50 100 CALM      30.11S
MICHIGAN CITY* NOT AVBL
RENSSELAER*    NOT AVBL
VALPARAISO       N/A     54  51  90 CALM      30.10
$$

LMZ740>746-230500-
SOUTHERN LAKE MICHIGAN

STATION/POSITION TIME  SKY/WX   TEMP WIND        PRES    VSBY
                                AIR  DIR/SP/G
                 (UTC)          (F)  (DEG/KT/KT) (MB)    (MI)
HARRISON CRIB    0340            51  120/  4/  4   N/A
BURNHAM HARBOR   0400            49  140/  2       N/A
CALUMET HARBOR   0330            51  170/  1/  2 1018.9R
BURNS HARBOR     0340            52   60/  5/  6 1019.6R
MICHIGAN CITY    0340            52   50/  4/  5   N/A
$$

ABBREVIATIONS USED IN REMARKS
   TC - TEMPERATURE IN CELSIUS
  WCI - WIND CHILL INDEX
   HX - HEAT INDEX
  VSB - VISIBILITY
$$




USA.gov is the U.S. government's official web portal to all federal, state and local government web resources and services.